This is the latest recevied weather packets stored in our database for station/object VE3TEJ. If no packets are shown the sender has not sent any weather packets the latest 10 day(s).
| Time | Temp. | Humidity | Pressure | Rain* | Wind** | Luminosity | Snow |
|---|---|---|---|---|---|---|---|
| 1777771036 | 3.33° C | 53% | 1014.1 hPa | 0 mm | - | - | - |
| 1777770736 | 3.89° C | 51% | 1014.2 hPa | 0 mm | - | - | - |
| 1777770438 | 3.89° C | 50% | 1014.2 hPa | 0 mm | - | - | - |
| 1777770136 | 4.44° C | 49% | 1014.3 hPa | 0 mm | - | - | - |
| 1777769836 | 3.89° C | 50% | 1014.3 hPa | 0 mm | - | - | - |
| 1777769537 | 4.44° C | 49% | 1014.2 hPa | 0 mm | - | - | - |
| 1777769237 | 4.44° C | 47% | 1014.1 hPa | 0 mm | - | - | - |
| 1777768937 | 5° C | 46% | 1014 hPa | 0 mm | - | - | - |
| 1777768637 | 5° C | 44% | 1014 hPa | 0 mm | - | - | - |
| 1777768338 | 5° C | 43% | 1014 hPa | 0 mm | - | - | - |
| 1777768038 | 5.56° C | 42% | 1014 hPa | 0 mm | - | - | - |
| 1777767737 | 5.56° C | 43% | 1014 hPa | 0 mm | - | - | - |
| 1777767437 | 5.56° C | 43% | 1014 hPa | 0 mm | - | - | - |
| 1777767137 | 5.56° C | 42% | 1013.9 hPa | 0 mm | - | - | - |
| 1777766836 | 5.56° C | 43% | 1014 hPa | 0 mm | - | - | - |
| 1777766536 | 6.11° C | 40% | 1013.9 hPa | 0 mm | - | - | - |
| 1777766236 | 6.11° C | 39% | 1014.1 hPa | 0 mm | - | - | - |
| 1777765936 | 6.11° C | 41% | 1014 hPa | 0 mm | - | - | - |
| 1777765636 | 6.11° C | 40% | 1014.1 hPa | 0 mm | - | - | - |
| 1777765338 | 6.11° C | 39% | 1014.1 hPa | 0 mm | - | - | - |
| 1777765038 | 6.67° C | 41% | 1013.9 hPa | 0 mm | - | - | - |
| 1777764738 | 6.67° C | 38% | 1014 hPa | 0 mm | - | - | - |
| 1777764438 | 6.67° C | 38% | 1013.8 hPa | 0 mm | - | - | - |
| 1777764137 | 6.67° C | 38% | 1014 hPa | 0 mm | - | - | - |
| 1777763837 | 6.67° C | 38% | 1013.9 hPa | 0 mm | - | - | - |
* Rain latest hour (hover to see other rain measurements)
** Current wind speed in m/s (hover to see current wind gust speed)